Location: Truman State University Observatory
(40.1787°N, 92.6006°W)
Time: 08:14:13
(UTC-05:00)

Hubble Space Telescope - Visible Passes

Search period start: 25 September 2017 00:00
Search period end: 05 October 2017 00:00
Orbit: 538 x 541 km, 28.5° (Epoch: 24 September)

Date Brightness Start Highest point End Pass type
(mag) Time Alt. Az. Time Alt. Az. Time Alt. Az.
03 Oct 3.3 05:14:45 11° S 05:15:02 11° SSE 05:16:11 10° SSE visible
04 Oct 3.3 05:05:16 12° SSE 05:05:16 12° SSE 05:06:30 10° SE visible
04 Oct 3.0 06:42:37 10° SW 06:45:13 16° S 06:47:48 10° SE visible
